sat.trackr.live / text

‹ back to catalog

STARLINK-36810

NORAD 67898 · 2026-035V

PAYLOAD ACTIVE UNKNOWN

§ Identity

Operator
Country
US
Launch date
2026-02-21
Launch site
AFWTR
Launch vehicle
Mass (kg)
RCS (m²)

Purposes: comms

External: N2YO · Heavens-Above · Gunter

§ Orbital elements

Epoch: 2026-09-19T14:12:05.766624Z

Period
93.90 min
Inclination
97.2793°
Eccentricity
0.0003326
Mean motion
15.33478242 rev/d
Perigee alt
463.2 km
Apogee alt
467.7 km
Semi-major
6,843.6 km
B*
8.5129e-4
RAAN
194.4470°
Arg perigee
97.8219°
Mean anomaly
262.3401°
Rev number
3,370

§ Raw data

STARLINK-368101 67898U 26035V   26262.59173341  .00027540  00000+0  85129-3 0  99902 67898  97.2793 194.4470 0003326  97.8219 262.3401 15.33478242 33706

JSON: /api/v1/satellites/67898 · /tle

For live sub-satellite position, see the globe view (requires WebGL).

§ Visibility from observer

Set your observer location to see the next 7 days of passes ≥ 10°. The values pass through the URL so the page stays shareable.

No JS? Fill the form by hand. The geolocation button needs JavaScript.